Volver al catálogo

STARLINK-34630

ActivoComunicacionesSSO
NORAD 64948·PAYLOAD·🇺🇸 United States

Lanzado Jul 26, 2025 desde Vandenberg Space Force Base

Loading…

Próximos Pases (próximas 24 horas)

TLE

ActualizadoSource: CelesTrak SupGP

Época: Sep 14, 2026, 21:01 UTC

1 64948C 25158S   26257.87618056  .00016741  00000+0  51998-3 0  2575
2 64948  97.2847 116.1789 0000229  78.1122 102.7556 15.33412887    16

Sigue STARLINK-34630 en tiempo real con AllMySat

Download on the App Store